Hourly Weather Bolshie Ivanischi

Today, 20 June, Sunday

Time Temperature Precipitation Wind Pressure Humidity
00:00 +19°C° 0 mm 2 mps 755 mmHg 76%
01:00 +18°C° 0 mm 2 mps 755 mmHg 78%
02:00 +18°C° 0 mm 2 mps 755 mmHg 80%
03:00 +17°C° 0 mm 2 mps 755 mmHg 82%
04:00 +18°C° 0 mm 2 mps 755 mmHg 82%
05:00 +18°C° 0 mm 2 mps 755 mmHg 81%
06:00 +20°C° 0 mm 1 mps 755 mmHg 81%
07:00 +21°C° 0 mm 2 mps 755 mmHg 74%
08:00 +24°C° 0 mm 2 mps 755 mmHg 68%
09:00 +26°C° 0 mm 2 mps 755 mmHg 62%
10:00 +27°C° 0 mm 2 mps 755 mmHg 57%
11:00 +28°C° 0 mm 2 mps 755 mmHg 52%
12:00 +30°C° 0 mm 3 mps 755 mmHg 47%
13:00 +30°C° 0 mm 2 mps 755 mmHg 45%
14:00 +31°C° 0 mm 2 mps 754 mmHg 43%
15:00 +31°C° 0 mm 2 mps 754 mmHg 42%
16:00 +31°C° 0 mm 2 mps 754 mmHg 46%
17:00 +31°C° 0 mm 2 mps 754 mmHg 49%
18:00 +30°C° 0 mm 2 mps 753 mmHg 53%
19:00 +28°C° 0 mm 2 mps 753 mmHg 60%
20:00 +26°C° 0 mm 2 mps 753 mmHg 67%
21:00 +24°C° 0 mm 2 mps 753 mmHg 74%
22:00 +23°C° 0 mm 2 mps 753 mmHg 76%
23:00 +21°C° 0 mm 2 mps 753 mmHg 78%

Tomorrow, 21 June, Monday

Time Temperature Precipitation Wind Pressure Humidity
00:00 +20°C° 0 mm 2 mps 753 mmHg 80%
01:00 +20°C° 0 mm 2 mps 754 mmHg 82%
02:00 +19°C° 0 mm 2 mps 754 mmHg 85%
03:00 +19°C° 0 mm 2 mps 754 mmHg 88%
04:00 +20°C° 0 mm 2 mps 754 mmHg 86%
05:00 +20°C° 0 mm 2 mps 754 mmHg 84%
06:00 +22°C° 0 mm 1 mps 754 mmHg 83%
07:00 +24°C° 0 mm 2 mps 754 mmHg 77%
08:00 +26°C° 0 mm 2 mps 754 mmHg 71%
09:00 +27°C° 0 mm 2 mps 754 mmHg 65%
10:00 +28°C° 0 mm 2 mps 754 mmHg 60%
11:00 +30°C° 0 mm 2 mps 754 mmHg 55%
12:00 +31°C° 0 mm 2 mps 754 mmHg 50%
13:00 +31°C° 0 mm 2 mps 754 mmHg 49%
14:00 +31°C° 0 mm 2 mps 754 mmHg 48%
15:00 +31°C° 0 mm 2 mps 754 mmHg 47%
16:00 +31°C° 0 mm 2 mps 754 mmHg 50%
17:00 +30°C° 0 mm 2 mps 753 mmHg 54%
18:00 +30°C° 0 mm 2 mps 753 mmHg 57%
19:00 +28°C° 0 mm 2 mps 753 mmHg 62%
20:00 +26°C° 0 mm 2 mps 753 mmHg 66%
21:00 +24°C° 0 mm 2 mps 753 mmHg 71%
22:00 +23°C° 0 mm 2 mps 754 mmHg 74%
23:00 +22°C° 0 mm 1 mps 754 mmHg 77%

Day after tomorrow, 22 June, Tuesday

Time Temperature Precipitation Wind Pressure Humidity
00:00 +21°C° 0 mm 1 mps 754 mmHg 80%
01:00 +20°C° 0 mm 1 mps 754 mmHg 83%
02:00 +20°C° 0 mm 1 mps 754 mmHg 85%
03:00 +19°C° 0 mm 1 mps 754 mmHg 88%
04:00 +20°C° 0 mm 1 mps 754 mmHg 87%
05:00 +21°C° 0 mm 1 mps 754 mmHg 85%
06:00 +22°C° 0 mm 1 mps 754 mmHg 83%
07:00 +24°C° 0 mm 1 mps 755 mmHg 77%
08:00 +25°C° 0 mm 1 mps 755 mmHg 70%
09:00 +27°C° 0 mm 2 mps 755 mmHg 64%
10:00 +28°C° 0 mm 2 mps 754 mmHg 58%
11:00 +30°C° 0 mm 2 mps 754 mmHg 52%
12:00 +31°C° 0 mm 2 mps 754 mmHg 47%
13:00 +32°C° 0 mm 2 mps 754 mmHg 45%
14:00 +32°C° 0 mm 2 mps 754 mmHg 43%
15:00 +34°C° 0 mm 2 mps 754 mmHg 41%
16:00 +34°C° 0 mm 2 mps 754 mmHg 45%
17:00 +32°C° 0 mm 2 mps 753 mmHg 49%
18:00 +32°C° 0 mm 2 mps 753 mmHg 52%
19:00 +30°C° 0 mm 2 mps 753 mmHg 59%
20:00 +28°C° 0 mm 2 mps 753 mmHg 65%
21:00 +26°C° 0 mm 2 mps 753 mmHg 72%
22:00 +25°C° 0 mm 2 mps 753 mmHg 74%
23:00 +24°C° 0 mm 2 mps 754 mmHg 76%

23 June, Wednesday

Time Temperature Precipitation Wind Pressure Humidity
00:00 +23°C° 0 mm 2 mps 754 mmHg 78%
01:00 +21°C° 0 mm 2 mps 754 mmHg 80%
02:00 +21°C° 0 mm 2 mps 754 mmHg 81%
03:00 +20°C° 0 mm 2 mps 754 mmHg 83%
04:00 +21°C° 0 mm 2 mps 754 mmHg 82%
05:00 +23°C° 0 mm 1 mps 754 mmHg 81%
06:00 +23°C° 0 mm 1 mps 755 mmHg 81%
07:00 +25°C° 0 mm 1 mps 755 mmHg 75%
08:00 +27°C° 0 mm 2 mps 755 mmHg 69%
09:00 +29°C° 0 mm 2 mps 755 mmHg 63%
10:00 +30°C° 0 mm 2 mps 755 mmHg 57%
11:00 +31°C° 0 mm 2 mps 755 mmHg 51%
12:00 +34°C° 0 mm 2 mps 755 mmHg 45%
13:00 +34°C° 0 mm 2 mps 754 mmHg 42%
14:00 +35°C° 0 mm 2 mps 754 mmHg 39%
15:00 +35°C° 0 mm 2 mps 754 mmHg 37%
16:00 +35°C° 0 mm 2 mps 754 mmHg 41%
17:00 +35°C° 0 mm 2 mps 754 mmHg 45%
18:00 +34°C° 0 mm 2 mps 754 mmHg 49%
19:00 +31°C° 0 mm 2 mps 753 mmHg 55%
20:00 +29°C° 0 mm 2 mps 753 mmHg 61%
21:00 +26°C° 0 mm 2 mps 753 mmHg 67%
22:00 +26°C° 0 mm 2 mps 753 mmHg 69%
23:00 +25°C° 0 mm 2 mps 753 mmHg 70%

24 June, Thursday

Time Temperature Precipitation Wind Pressure Humidity
00:00 +24°C° 0 mm 2 mps 753 mmHg 72%
01:00 +24°C° 0 mm 2 mps 753 mmHg 74%
02:00 +23°C° 0 mm 2 mps 753 mmHg 77%
03:00 +21°C° 0 mm 2 mps 754 mmHg 80%
04:00 +23°C° 0 mm 2 mps 754 mmHg 80%
05:00 +24°C° 0 mm 2 mps 754 mmHg 80%
06:00 +24°C° 0 mm 2 mps 754 mmHg 80%
07:00 +26°C° 0 mm 2 mps 753 mmHg 72%
08:00 +28°C° 0 mm 2 mps 753 mmHg 65%
09:00 +30°C° 0 mm 2 mps 753 mmHg 58%
10:00 +31°C° 0 mm 3 mps 753 mmHg 53%
11:00 +33°C° 0 mm 3 mps 753 mmHg 48%
12:00 +34°C° 0 mm 3 mps 753 mmHg 44%
13:00 +35°C° 0 mm 3 mps 752 mmHg 41%
14:00 +35°C° 0 mm 2 mps 752 mmHg 39%
15:00 +36°C° 0 mm 2 mps 752 mmHg 36%
16:00 +35°C° 0 mm 2 mps 752 mmHg 40%
17:00 +35°C° 0 mm 2 mps 751 mmHg 44%
18:00 +34°C° 0 mm 2 mps 751 mmHg 47%
19:00 +31°C° 0 mm 2 mps 751 mmHg 54%
20:00 +29°C° 0 mm 2 mps 751 mmHg 61%
21:00 +26°C° 0 mm 2 mps 751 mmHg 67%
22:00 +26°C° 0 mm 2 mps 751 mmHg 69%
23:00 +25°C° 0 mm 2 mps 751 mmHg 70%

25 June, Friday

Time Temperature Precipitation Wind Pressure Humidity
00:00 +24°C° 0 mm 2 mps 751 mmHg 71%
01:00 +23°C° 0 mm 2 mps 750 mmHg 76%
02:00 +23°C° 0 mm 2 mps 750 mmHg 80%
03:00 +21°C° 0 mm 2 mps 750 mmHg 84%
04:00 +21°C° 0 mm 2 mps 750 mmHg 83%
05:00 +23°C° 0 mm 2 mps 750 mmHg 81%
06:00 +22°C° 0 mm 3 mps 750 mmHg 79%
07:00 +25°C° 0 mm 3 mps 750 mmHg 73%
08:00 +26°C° 0 mm 3 mps 750 mmHg 66%
09:00 +27°C° 0 mm 3 mps 750 mmHg 59%
10:00 +29°C° 0 mm 3 mps 750 mmHg 55%
11:00 +31°C° 0 mm 3 mps 750 mmHg 50%
12:00 +32°C° 0 mm 2 mps 750 mmHg 46%
13:00 +34°C° 0 mm 3 mps 750 mmHg 43%
14:00 +35°C° 0 mm 3 mps 749 mmHg 40%
15:00 +35°C° 0 mm 3 mps 749 mmHg 38%
16:00 +35°C° 0 mm 3 mps 749 mmHg 41%
17:00 +34°C° 0 mm 2 mps 748 mmHg 45%
18:00 +34°C° 0 mm 2 mps 747 mmHg 49%
19:00 +30°C° 0.3 mm 3 mps 748 mmHg 61%
20:00 +26°C° 0.3 mm 3 mps 748 mmHg 73%
21:00 +22°C° 0.3 mm 4 mps 748 mmHg 85%
22:00 +22°C° 0.4 mm 3 mps 748 mmHg 88%
23:00 +21°C° 0.4 mm 2 mps 748 mmHg 91%
Show more